CW4525 Weather Reports


Display with metric or nautical units.
time (UTC)temp
F
wind
direction
speed
MPH
gust
MPH
rain 1hr
in
rain 24hr
in
rain mn
in
humidity
%
barometer
mb
20260505214529 79 215 11.0 23.0 0.00 0.00 0.00 35 1000.6
20260505213029 79 255 8.0 26.0 0.00 0.00 0.00 35 1000.1
20260505211539 79 212 11.0 23.0 0.00 0.00 0.00 34 999.9
20260505210028 79 221 16.0 32.0 0.00 0.00 0.00 34 1000.0
20260505204527 79 159 14.0 35.0 0.00 0.00 0.00 34 1000.0
20260505203027 80 138 17.0 34.0 0.00 0.00 0.00 33 1000.2
20260505201525 80 214 12.0 29.0 0.00 0.00 0.00 32 1000.1
20260505200025 81 170 11.0 32.0 0.00 0.00 0.00 32 1000.1
20260505194524 81 194 16.0 33.0 0.00 0.00 0.00 30 1000.1
20260505193023 81 157 12.0 37.0 0.00 0.00 0.00 30 1000.4
20260505191530 81 179 19.0 31.0 0.00 0.00 0.00 30 1000.1
20260505190022 82 242 17.0 29.0 0.00 0.00 0.00 29 1000.6
20260505184519 81 157 13.0 31.0 0.00 0.00 0.00 31 1001.0
20260505183021 81 178 19.0 36.0 0.00 0.00 0.00 30 1001.2
20260505181518 81 178 18.0 39.0 0.00 0.00 0.00 30 1001.6
20260505180015 81 214 11.0 32.0 0.00 0.00 0.00 33 1001.6
20260505174522 80 228 10.0 29.0 0.00 0.00 0.00 34 1001.8
20260505173012 80 267 15.0 28.0 0.00 0.00 0.00 31 1002.1
20260505171516 79 204 15.0 28.0 0.00 0.00 0.00 34 1002.1
20260505170011 79 195 12.0 27.0 0.00 0.00 0.00 34 1002.3
20260505164506 79 192 10.0 22.0 0.00 0.00 0.00 37 1002.6
20260505163009 78 249 16.0 30.0 0.00 0.00 0.00 36 1002.9
20260505161502 78 194 10.0 19.0 0.00 0.00 0.00 38 1003.3
20260505153053 75 201 11.0 22.0 0.00 0.00 0.00 42 1004.1
20260505151547 73 145 8.0 18.0 0.00 0.00 0.00 44 1004.4
20260505124515 62 147 4.0 12.0 0.00 0.00 0.00 58 1004.4
20260505123009 61 163 4.0 9.0 0.00 0.00 0.00 60 1004.5
20260505121505 60 196 5.0 12.0 0.00 0.00 0.00 61 1004.6
20260505120002 58 183 7.0 15.0 0.00 0.00 0.00 63 1004.6
20260505114559 57 147 6.0 12.0 0.00 0.00 0.00 65 1004.6
20260505113058 55 215 6.0 11.0 0.00 0.00 0.00 69 1004.5
20260505111602 53 164 4.0 9.0 0.00 0.00 0.00 70 1004.3
20260505110111 53 144 5.0 9.0 0.00 0.00 0.00 68 1004.2
20260505101548 57 196 5.0 11.0 0.00 0.00 0.00 61 1004.1
20260505100046 57 176 6.0 15.0 0.00 0.00 0.00 59 1004.1
20260505094543 57 148 8.0 18.0 0.00 0.00 0.00 59 1004.1
20260505093042 57 146 8.0 18.0 0.00 0.00 0.00 58 1004.2
20260505091552 57 192 8.0 18.0 0.00 0.00 0.00 58 1004.3
20260505090040 57 192 9.0 18.0 0.00 0.00 0.00 58 1004.4
20260505084539 56 186 6.0 20.0 0.00 0.00 0.00 59 1004.3
20260505083049 56 131 8.0 14.0 0.00 0.00 0.00 59 1004.6
20260505081537 56 178 6.0 13.0 0.00 0.00 0.00 60 1004.7
20260505080038 55 207 7.0 13.0 0.00 0.00 0.00 61 1004.7
20260505074535 55 188 6.0 12.0 0.00 0.00 0.00 62 1004.7
20260505073032 55 165 5.0 10.0 0.00 0.00 0.00 61 1004.8
20260505071527 56 160 6.0 11.0 0.00 0.00 0.00 59 1004.8
20260505070024 56 148 7.0 15.0 0.00 0.00 0.00 59 1004.8
20260505064532 57 144 7.0 11.0 0.00 0.00 0.00 57 1004.9
20260505063022 57 144 5.0 13.0 0.00 0.00 0.00 57 1005.0
20260505061520 57 185 8.0 15.0 0.00 0.00 0.00 56 1005.1
20260505060020 57 174 5.0 15.0 0.00 0.00 0.00 56 1005.2
20260505054535 58 179 9.0 20.0 0.00 0.00 0.00 55 1005.3
20260505053015 58 165 9.0 20.0 0.00 0.00 0.00 55 1005.4
20260505051513 57 200 9.0 16.0 0.00 0.00 0.00 56 1005.3
20260505041507 57 217 7.0 15.0 0.00 0.00 0.00 55 1005.4
20260505040002 58 157 7.0 15.0 0.00 0.00 0.00 54 1005.3
20260505034502 58 234 5.0 14.0 0.00 0.00 0.00 54 1005.2
20260505033001 58 219 8.0 15.0 0.00 0.00 0.00 53 1005.0
20260505031606 58 198 9.0 16.0 0.00 0.00 0.00 52 1005.1
20260505030122 59 223 6.0 16.0 0.00 0.00 0.00 52 1005.0
20260505024612 59 195 6.0 13.0 0.00 0.00 0.00 51 1005.1
20260505023101 60 143 7.0 21.0 0.00 0.00 0.00 50 1004.9
20260505021559 60 174 10.0 18.0 0.00 0.00 0.00 49 1005.1
20260505020108 61 122 6.0 13.0 0.00 0.00 0.00 48 1005.1
20260505014558 61 186 10.0 20.0 0.00 0.00 0.00 45 1005.0
20260505013058 62 177 4.0 14.0 0.00 0.00 0.00 43 1004.9
20260505011601 63 229 5.0 15.0 0.00 0.00 0.00 41 1004.5
20260505010110 63 185 4.0 10.0 0.00 0.00 0.00 40 1004.4
20260505004627 63 213 6.0 13.0 0.00 0.00 0.00 40 1004.0
20260505003100 64 212 6.0 13.0 0.00 0.00 0.00 40 1003.9
20260505001555 64 220 6.0 10.0 0.00 0.00 0.00 40 1003.5
20260505000109 65 192 4.0 8.0 0.00 0.00 0.00 39 1003.4
20260504234554 65 190 5.0 7.0 0.00 0.00 0.00 38 1003.1
20260504233054 66 203 2.0 10.0 0.00 0.00 0.00 36 1002.9
20260504231620 67 226 8.0 14.0 0.00 0.00 0.00 35 1002.8
20260504230052 67 275 5.0 13.0 0.00 0.00 0.00 35 1002.6
20260504224552 68 215 8.0 19.0 0.00 0.00 0.00 34 1002.4
20260504223051 68 200 6.0 13.0 0.00 0.00 0.00 34 1002.2
20260504221630 68 279 13.0 22.0 0.00 0.00 0.00 33 1002.2
20260504220049 68 190 10.0 23.0 0.00 0.00 0.00 33 1002.3